User: anonymous
Location: Lawrence Hall of Science
(37.8785°N, 122.2415°W)
Time: 06:05:28
(UTC-07:00)
Language:

ARGOS - Orbit

View from above orbital plane
View from above orbital plane
View from above satellite
View from above satellite

Ground track
Ground track

The orbit data is extracted from the following two-line orbital elements,

1 25634U 99008A   14239.14369201  .00000066  00000-0  31485-4 0  2373
2 25634 098.7552 305.8353 0009137 280.8115 079.2519 14.19166237803071
Epoch (UTC): 27 August 2014 03:26:54
Eccentricity: 0.0009137
inclination: 98.7552°
perigee height: 821 km
apogee height: 835 km
right ascension of ascending node: 305.8353°
argument of perigee: 280.8115°
revolutions per day: 14.19166237
mean anomaly at epoch: 79.2519°
orbit number at epoch: 80307

The dashed part of the orbit path shows where the satellite is in the earth's shadow,  

DLR